This is the latest recevied weather packets stored in our database for station/object KI7JYE. If no packets are shown the sender has not sent any weather packets the latest 1 day(s).
| Time | Temp. | Humidity | Pressure | Rain* | Wind** | Luminosity | Snow |
|---|---|---|---|---|---|---|---|
| 1778043776 | 14.44° C | 87% | 1015.7 hPa | 0 mm | 0 m/s | 0 W/m² | - |
| 1778043472 | 14.44° C | 88% | 1015.6 hPa | 0 mm | 0 m/s | 0 W/m² | - |
| 1778043169 | 13.89° C | 89% | 1015.5 hPa | 0 mm | 0 m/s | 0 W/m² | - |
| 1778042867 | 13.89° C | 89% | 1015.5 hPa | 0 mm | 0 m/s | 0 W/m² | - |
| 1778042564 | 13.89° C | 90% | 1015.4 hPa | 0 mm | 0 m/s | 0 W/m² | - |
| 1778042261 | 13.33° C | 90% | 1015.3 hPa | 0 mm | 0 m/s | 0 W/m² | - |
| 1778041959 | 13.33° C | 90% | 1015.3 hPa | 0 mm | 0 m/s | 0 W/m² | - |
| 1778041657 | 13.33° C | 90% | 1015.2 hPa | 0 mm | 0 m/s | 0 W/m² | - |
| 1778041356 | 13.33° C | 90% | 1015 hPa | 0 mm | 0 m/s | 0 W/m² | - |
| 1778041054 | 13.33° C | 89% | 1015 hPa | 0 mm | 0 m/s | 0 W/m² | - |
| 1778040750 | 13.89° C | 88% | 1014.6 hPa | 0 mm | 0 m/s | 0 W/m² | - |
| 1778040448 | 13.89° C | 88% | 1015 hPa | 0 mm | 0 m/s | 0 W/m² | - |
| 1778040145 | 14.44° C | 87% | 1014.9 hPa | 0 mm | 0 m/s | 0 W/m² | - |
| 1778039841 | 14.44° C | 87% | 1014.8 hPa | 0 mm | 0 m/s | 0 W/m² | - |
| 1778039538 | 14.44° C | 86% | 1014.7 hPa | 0 mm | 0 m/s | 0 W/m² | - |
| 1778039235 | 15° C | 84% | 1014.7 hPa | 0 mm | 0 m/s | 0 W/m² | - |
| 1778038932 | 15° C | 83% | 1014.6 hPa | 0 mm | 0 m/s | 0 W/m² | - |
| 1778038630 | 15.56° C | 82% | 1014.5 hPa | 0 mm | 0 m/s | 0 W/m² | - |
| 1778038326 | 16.11° C | 79% | 1014.3 hPa | 0 mm | 0 m/s | 0 W/m² | - |
| 1778038023 | 16.67° C | 78% | 1014.5 hPa | 0 mm | 0 m/s | 0 W/m² | - |
| 1778037721 | 16.67° C | 77% | 1014.5 hPa | 0 mm | 0 m/s | 2 W/m² | - |
| 1778037417 | 16.67° C | 76% | 1014 hPa | 0 mm | 0 m/s | 4 W/m² | - |
| 1778037114 | 17.22° C | 75% | 1014.3 hPa | 0 mm | 0 m/s | 7 W/m² | - |
| 1778036813 | 17.22° C | 74% | 1014.3 hPa | 0 mm | 0.45 m/s, 213° | 10 W/m² | - |
| 1778036510 | 17.22° C | 74% | 1013.9 hPa | 0 mm | 0.45 m/s, 214° | 13 W/m² | - |
* Rain latest hour (hover to see other rain measurements)
** Current wind speed in m/s (hover to see current wind gust speed)